Time,TemperatureF,DewpointF,PressureIn,WindDirection,WindDirectionDegrees,WindSpeedMPH,WindSpeedGustMPH,Humidity,HourlyPrecipIn,Conditions,Clouds,dailyrainin,SoftwareType,DateUTC
2013-04-07 00:03:00,33.1,31.0,29.56,North,350,0.0,0.0,92,0.04,,---,0.00,VWS V13.01,2013-04-07 05:03:00,
2013-04-07 00:08:00,33.1,31.0,29.56,North,349,0.0,1.0,92,0.04,,---,0.00,VWS V13.01,2013-04-07 05:08:00,
2013-04-07 00:13:00,33.0,30.9,29.56,North,349,0.0,2.0,92,0.04,,---,0.00,VWS V13.01,2013-04-07 05:13:00,
2013-04-07 00:18:00,33.0,30.9,29.56,North,350,1.0,2.0,92,0.04,,---,0.00,VWS V13.01,2013-04-07 05:18:00,
2013-04-07 00:23:00,33.0,30.9,29.56,North,350,1.0,2.0,92,0.04,,---,0.00,VWS V13.01,2013-04-07 05:23:00,
2013-04-07 00:28:00,33.0,30.9,29.56,North,349,1.0,2.0,92,0.05,,---,0.01,VWS V13.01,2013-04-07 05:28:00,
2013-04-07 00:33:00,33.0,30.9,29.56,North,349,0.0,2.0,92,0.03,,---,0.01,VWS V13.01,2013-04-07 05:33:00,
2013-04-07 00:38:00,33.0,30.9,29.56,North,350,1.0,2.0,92,0.03,,---,0.01,VWS V13.01,2013-04-07 05:38:00,
2013-04-07 00:43:00,33.0,30.9,29.57,North,349,2.0,2.0,92,0.03,,---,0.01,VWS V13.01,2013-04-07 05:43:00,
2013-04-07 00:48:00,33.0,30.9,29.57,North,349,2.0,2.0,92,0.03,,---,0.01,VWS V13.01,2013-04-07 05:48:00,
2013-04-07 00:53:00,33.0,30.9,29.56,NNW,344,2.0,3.0,92,0.03,,---,0.01,VWS V13.01,2013-04-07 05:53:00,
2013-04-07 00:58:00,33.0,30.9,29.57,NNW,348,1.0,4.0,92,0.03,,---,0.01,VWS V13.01,2013-04-07 05:58:00,
2013-04-07 01:03:00,33.0,31.2,29.57,NNW,348,2.0,2.0,93,0.02,,---,0.02,VWS V13.01,2013-04-07 06:03:00,
2013-04-07 01:08:00,32.9,30.8,29.57,NNW,338,3.0,4.0,92,0.02,,---,0.02,VWS V13.01,2013-04-07 06:08:00,
2013-04-07 01:13:00,32.9,30.8,29.57,NNW,328,3.0,5.0,92,0.02,,---,0.02,VWS V13.01,2013-04-07 06:13:00,
2013-04-07 01:18:00,32.8,30.7,29.58,NNW,331,4.0,5.0,92,0.02,,---,0.02,VWS V13.01,2013-04-07 06:18:00,
2013-04-07 01:23:00,32.7,30.6,29.58,NNW,337,3.0,5.0,92,0.02,,---,0.02,VWS V13.01,2013-04-07 06:23:00,
2013-04-07 01:28:00,32.6,30.5,29.58,NNW,346,3.0,5.0,92,0.02,,---,0.02,VWS V13.01,2013-04-07 06:28:00,
2013-04-07 01:33:00,32.6,30.5,29.58,NW,321,2.0,3.0,92,0.01,,---,0.02,VWS V13.01,2013-04-07 06:33:00,
2013-04-07 01:38:00,32.6,30.8,29.58,NNW,332,1.0,4.0,93,0.01,,---,0.02,VWS V13.01,2013-04-07 06:38:00,
2013-04-07 01:43:00,32.5,30.7,29.58,NNW,344,2.0,4.0,93,0.01,,---,0.02,VWS V13.01,2013-04-07 06:43:00,
2013-04-07 01:48:00,32.5,30.4,29.58,NW,319,2.0,5.0,92,0.01,,---,0.02,VWS V13.01,2013-04-07 06:48:00,
2013-04-07 01:53:00,32.3,30.2,29.58,NW,325,4.0,5.0,92,0.02,,---,0.03,VWS V13.01,2013-04-07 06:53:00,
2013-04-07 01:58:00,32.3,30.2,29.59,NNW,331,3.0,5.0,92,0.02,,---,0.03,VWS V13.01,2013-04-07 06:58:00,
2013-04-07 02:04:00,32.1,30.3,29.59,North,350,3.0,3.0,93,0.01,,---,0.03,VWS V13.01,2013-04-07 07:04:00,
2013-04-07 02:09:00,32.1,30.3,29.59,NW,325,2.0,5.0,93,0.01,,---,0.03,VWS V13.01,2013-04-07 07:09:00,
2013-04-07 02:14:00,32.0,30.2,29.59,NNW,337,3.0,5.0,93,0.01,,---,0.03,VWS V13.01,2013-04-07 07:14:00,
2013-04-07 02:19:00,32.0,30.2,29.59,NNW,335,3.0,5.0,93,0.01,,---,0.03,VWS V13.01,2013-04-07 07:19:00,
2013-04-07 02:24:00,31.9,30.1,29.59,WNW,299,3.0,6.0,93,0.01,,---,0.03,VWS V13.01,2013-04-07 07:24:00,
2013-04-07 02:29:00,31.8,29.8,29.60,NW,323,4.0,6.0,92,0.01,,---,0.03,VWS V13.01,2013-04-07 07:29:00,
2013-04-07 02:34:00,31.7,29.6,29.60,NNW,338,4.0,5.0,92,0.01,,---,0.03,VWS V13.01,2013-04-07 07:34:00,
2013-04-07 02:39:00,31.6,29.5,29.60,NNW,334,3.0,5.0,92,0.02,,---,0.04,VWS V13.01,2013-04-07 07:39:00,
2013-04-07 02:45:00,31.5,29.5,29.60,NW,326,3.0,6.0,92,0.02,,---,0.04,VWS V13.01,2013-04-07 07:45:00,
2013-04-07 02:50:00,31.5,29.5,29.61,NNW,345,4.0,6.0,92,0.02,,---,0.04,VWS V13.01,2013-04-07 07:50:00,
2013-04-07 02:55:00,31.5,29.5,29.61,NNW,337,3.0,6.0,92,0.02,,---,0.04,VWS V13.01,2013-04-07 07:55:00,
2013-04-07 03:00:00,31.4,29.4,29.61,NW,321,4.0,6.0,92,0.02,,---,0.04,VWS V13.01,2013-04-07 08:00:00,
2013-04-07 03:05:00,31.3,29.2,29.61,NNW,329,5.0,5.0,92,0.01,,---,0.04,VWS V13.01,2013-04-07 08:05:00,
2013-04-07 03:10:00,31.2,29.1,29.62,NNW,336,3.0,5.0,92,0.01,,---,0.04,VWS V13.01,2013-04-07 08:10:00,
2013-04-07 03:15:00,31.2,29.1,29.62,NNW,336,2.0,5.0,92,0.01,,---,0.04,VWS V13.01,2013-04-07 08:15:00,
2013-04-07 03:20:00,31.2,29.1,29.63,NW,315,3.0,5.0,92,0.01,,---,0.04,VWS V13.01,2013-04-07 08:20:00,
2013-04-07 03:25:00,31.1,29.0,29.63,NW,313,4.0,5.0,92,0.01,,---,0.04,VWS V13.01,2013-04-07 08:25:00,
2013-04-07 03:30:00,31.1,29.0,29.64,NW,320,2.0,5.0,92,0.01,,---,0.04,VWS V13.01,2013-04-07 08:30:00,
2013-04-07 03:35:00,31.1,29.0,29.64,NW,315,4.0,6.0,92,0.01,,---,0.04,VWS V13.01,2013-04-07 08:35:00,
2013-04-07 03:40:00,31.0,29.0,29.64,NW,323,3.0,6.0,92,0.01,,---,0.04,VWS V13.01,2013-04-07 08:40:00,
2013-04-07 03:45:00,30.9,28.9,29.64,NW,323,3.0,6.0,92,0.01,,---,0.04,VWS V13.01,2013-04-07 08:45:00,
2013-04-07 03:50:00,30.8,28.8,29.65,NNW,341,3.0,6.0,92,0.01,,---,0.04,VWS V13.01,2013-04-07 08:50:00,
2013-04-07 03:55:00,30.8,28.8,29.65,NW,325,5.0,6.0,92,0.01,,---,0.04,VWS V13.01,2013-04-07 08:55:00,
2013-04-07 04:00:00,30.8,28.8,29.65,NW,315,3.0,6.0,92,0.01,,---,0.04,VWS V13.01,2013-04-07 09:00:00,
2013-04-07 04:05:00,30.7,28.7,29.65,NW,317,4.0,4.0,92,0.00,,---,0.04,VWS V13.01,2013-04-07 09:05:00,
2013-04-07 04:10:00,30.7,28.7,29.65,NW,322,3.0,4.0,92,0.00,,---,0.04,VWS V13.01,2013-04-07 09:10:00,
2013-04-07 04:15:00,30.7,28.7,29.66,NW,322,2.0,4.0,92,0.00,,---,0.04,VWS V13.01,2013-04-07 09:15:00,
2013-04-07 04:20:00,30.7,28.7,29.66,NNW,327,3.0,4.0,92,0.00,,---,0.04,VWS V13.01,2013-04-07 09:20:00,
2013-04-07 04:25:00,30.6,28.6,29.67,NNW,345,2.0,4.0,92,0.00,,---,0.04,VWS V13.01,2013-04-07 09:25:00,
2013-04-07 04:30:00,30.6,28.6,29.67,NNW,334,3.0,4.0,92,0.00,,---,0.04,VWS V13.01,2013-04-07 09:30:00,
2013-04-07 04:35:00,30.6,28.6,29.67,NNW,334,1.0,2.0,92,0.00,,---,0.04,VWS V13.01,2013-04-07 09:35:00,
2013-04-07 04:40:00,30.6,28.6,29.67,NNW,334,1.0,2.0,92,0.00,,---,0.04,VWS V13.01,2013-04-07 09:40:00,
2013-04-07 04:45:00,30.6,28.6,29.68,NNW,338,1.0,3.0,92,0.00,,---,0.04,VWS V13.01,2013-04-07 09:45:00,
2013-04-07 04:51:00,30.6,28.6,29.68,NNW,339,3.0,3.0,92,0.00,,---,0.04,VWS V13.01,2013-04-07 09:51:00,
2013-04-07 04:55:00,30.6,28.6,29.68,NNW,338,2.0,3.0,92,0.00,,---,0.04,VWS V13.01,2013-04-07 09:55:00,
2013-04-07 05:01:00,30.5,28.5,29.68,WNW,299,2.0,3.0,92,0.00,,---,0.04,VWS V13.01,2013-04-07 10:01:00,
2013-04-07 05:06:00,30.5,28.5,29.69,NNW,330,3.0,3.0,92,0.00,,---,0.04,VWS V13.01,2013-04-07 10:06:00,
2013-04-07 05:11:00,30.5,28.5,29.69,NW,326,2.0,4.0,92,0.00,,---,0.04,VWS V13.01,2013-04-07 10:11:00,
2013-04-07 05:16:00,30.5,28.5,29.69,NNW,337,2.0,4.0,92,0.00,,---,0.04,VWS V13.01,2013-04-07 10:16:00,
2013-04-07 05:21:00,30.5,28.5,29.70,NW,315,3.0,4.0,92,0.00,,---,0.04,VWS V13.01,2013-04-07 10:21:00,
2013-04-07 05:26:00,30.5,28.5,29.70,NNW,331,3.0,4.0,92,0.00,,---,0.04,VWS V13.01,2013-04-07 10:26:00,
2013-04-07 05:31:00,30.5,28.5,29.70,NW,319,2.0,4.0,92,0.00,,---,0.04,VWS V13.01,2013-04-07 10:31:00,
2013-04-07 05:37:00,30.5,28.5,29.71,NNW,337,3.0,3.0,92,0.00,,---,0.04,VWS V13.01,2013-04-07 10:37:00,
2013-04-07 05:42:00,30.5,28.5,29.71,NNW,329,3.0,4.0,92,0.00,,---,0.04,VWS V13.01,2013-04-07 10:42:00,
2013-04-07 05:47:00,30.5,28.5,29.71,NNW,337,2.0,4.0,92,0.00,,---,0.04,VWS V13.01,2013-04-07 10:47:00,
2013-04-07 05:52:00,30.5,28.5,29.71,NW,319,2.0,4.0,92,0.00,,---,0.04,VWS V13.01,2013-04-07 10:52:00,
2013-04-07 05:57:00,30.5,28.5,29.72,NW,308,3.0,4.0,92,0.00,,---,0.04,VWS V13.01,2013-04-07 10:57:00,
2013-04-07 06:02:00,30.5,28.5,29.72,NNW,329,1.0,4.0,92,0.00,,---,0.04,VWS V13.01,2013-04-07 11:02:00,
2013-04-07 06:07:00,30.5,28.2,29.73,NW,309,3.0,4.0,91,0.00,,---,0.04,VWS V13.01,2013-04-07 11:07:00,
2013-04-07 06:12:00,30.6,28.6,29.73,NW,315,3.0,4.0,92,0.00,,---,0.04,VWS V13.01,2013-04-07 11:12:00,
2013-04-07 06:17:00,30.6,28.6,29.74,NNW,346,3.0,4.0,92,0.00,,---,0.04,VWS V13.01,2013-04-07 11:17:00,
2013-04-07 06:22:00,30.6,28.6,29.74,NNW,345,1.0,4.0,92,0.00,,---,0.04,VWS V13.01,2013-04-07 11:22:00,
2013-04-07 06:27:00,30.6,28.6,29.74,NNW,329,2.0,4.0,92,0.00,,---,0.04,VWS V13.01,2013-04-07 11:27:00,
2013-04-07 06:32:00,30.6,28.3,29.74,NW,315,4.0,4.0,91,0.00,,---,0.04,VWS V13.01,2013-04-07 11:32:00,
2013-04-07 06:37:00,30.6,28.3,29.74,NNW,329,3.0,4.0,91,0.00,,---,0.04,VWS V13.01,2013-04-07 11:37:00,
2013-04-07 06:42:00,30.6,28.3,29.75,NW,318,2.0,4.0,91,0.00,,---,0.04,VWS V13.01,2013-04-07 11:42:00,
2013-04-07 06:47:00,30.6,28.3,29.75,NNW,340,3.0,4.0,91,0.00,,---,0.04,VWS V13.01,2013-04-07 11:47:00,
2013-04-07 06:52:00,30.6,28.3,29.75,NNW,339,3.0,4.0,91,0.00,,---,0.04,VWS V13.01,2013-04-07 11:52:00,
2013-04-07 06:58:00,30.7,28.4,29.75,NNW,337,2.0,5.0,91,0.00,,---,0.04,VWS V13.01,2013-04-07 11:58:00,
2013-04-07 07:03:00,30.7,28.4,29.76,NNW,338,3.0,3.0,91,0.00,,---,0.04,VWS V13.01,2013-04-07 12:03:00,
2013-04-07 07:08:00,30.7,28.4,29.77,NW,319,3.0,4.0,91,0.00,,---,0.04,VWS V13.01,2013-04-07 12:08:00,
2013-04-07 07:13:00,30.7,28.4,29.77,NNW,329,2.0,4.0,91,0.00,,---,0.04,VWS V13.01,2013-04-07 12:13:00,
2013-04-07 07:18:00,30.8,28.5,29.78,North,349,2.0,4.0,91,0.00,,---,0.04,VWS V13.01,2013-04-07 12:18:00,
2013-04-07 07:23:00,30.8,28.5,29.78,NNW,340,3.0,4.0,91,0.00,,---,0.04,VWS V13.01,2013-04-07 12:23:00,
2013-04-07 07:28:00,30.8,28.5,29.78,NNW,340,3.0,4.0,91,0.00,,---,0.04,VWS V13.01,2013-04-07 12:28:00,
2013-04-07 07:33:00,30.9,28.6,29.79,NNW,344,2.0,3.0,91,0.00,,---,0.04,VWS V13.01,2013-04-07 12:33:00,
2013-04-07 07:38:00,30.9,28.6,29.79,NNW,342,3.0,3.0,91,0.00,,---,0.04,VWS V13.01,2013-04-07 12:38:00,
2013-04-07 07:43:00,30.8,28.5,29.79,NNW,346,3.0,4.0,91,0.00,,---,0.04,VWS V13.01,2013-04-07 12:43:00,
2013-04-07 07:48:00,30.8,28.5,29.79,North,350,2.0,4.0,91,0.00,,---,0.04,VWS V13.01,2013-04-07 12:48:00,
2013-04-07 07:53:00,30.8,28.5,29.79,North,360,3.0,6.0,91,0.00,,---,0.04,VWS V13.01,2013-04-07 12:53:00,
2013-04-07 07:58:00,30.8,28.5,29.80,North,355,5.0,6.0,91,0.00,,---,0.04,VWS V13.01,2013-04-07 12:58:00,
2013-04-07 08:03:00,30.7,28.4,29.80,NNW,339,4.0,4.0,91,0.00,,---,0.04,VWS V13.01,2013-04-07 13:03:00,
2013-04-07 08:08:00,30.7,28.4,29.80,NNW,344,1.0,6.0,91,0.00,,---,0.04,VWS V13.01,2013-04-07 13:08:00,
2013-04-07 08:13:00,30.8,28.5,29.81,NNW,345,4.0,6.0,91,0.00,,---,0.04,VWS V13.01,2013-04-07 13:13:00,
2013-04-07 08:18:00,30.8,28.5,29.81,NNW,329,4.0,6.0,91,0.00,,---,0.04,VWS V13.01,2013-04-07 13:18:00,
2013-04-07 08:23:00,30.7,28.1,29.81,NNW,329,5.0,6.0,90,0.00,,---,0.04,VWS V13.01,2013-04-07 13:23:00,
2013-04-07 08:28:00,30.7,28.1,29.81,NW,323,7.0,7.0,90,0.00,,---,0.04,VWS V13.01,2013-04-07 13:28:00,
2013-04-07 08:33:00,30.6,27.8,29.82,NW,325,3.0,4.0,89,0.00,,---,0.04,VWS V13.01,2013-04-07 13:33:00,
2013-04-07 08:38:00,30.5,27.4,29.82,NNW,329,5.0,13.0,88,0.00,,---,0.04,VWS V13.01,2013-04-07 13:38:00,
2013-04-07 08:44:00,30.3,27.2,29.83,NW,304,4.0,13.0,88,0.00,,---,0.04,VWS V13.01,2013-04-07 13:44:00,
2013-04-07 08:49:00,30.2,27.1,29.83,NNW,331,3.0,13.0,88,0.00,,---,0.04,VWS V13.01,2013-04-07 13:49:00,
2013-04-07 08:54:00,30.3,27.5,29.83,NNW,338,3.0,13.0,89,0.00,,---,0.04,VWS V13.01,2013-04-07 13:54:00,
2013-04-07 08:59:00,30.3,27.5,29.83,NNW,334,2.0,13.0,89,0.00,,---,0.04,VWS V13.01,2013-04-07 13:59:00,
2013-04-07 09:04:00,30.4,27.5,29.83,WNW,300,2.0,4.0,89,0.00,,---,0.04,VWS V13.01,2013-04-07 14:04:00,
2013-04-07 09:09:00,30.5,27.6,29.84,NW,315,3.0,4.0,89,0.00,,---,0.04,VWS V13.01,2013-04-07 14:09:00,
2013-04-07 09:14:00,30.6,27.8,29.84,North,355,3.0,5.0,89,0.00,,---,0.04,VWS V13.01,2013-04-07 14:14:00,
2013-04-07 09:19:00,30.6,27.8,29.84,North,355,2.0,5.0,89,0.00,,---,0.04,VWS V13.01,2013-04-07 14:19:00,
2013-04-07 09:24:00,30.3,27.2,29.84,NNW,346,3.0,6.0,88,0.00,,---,0.04,VWS V13.01,2013-04-07 14:24:00,
2013-04-07 09:29:00,30.3,27.2,29.85,North,360,4.0,6.0,88,0.00,,---,0.04,VWS V13.01,2013-04-07 14:29:00,
2013-04-07 09:35:00,30.3,27.2,29.85,NNW,346,3.0,5.0,88,0.00,,---,0.04,VWS V13.01,2013-04-07 14:35:00,
2013-04-07 09:40:00,30.4,27.3,29.85,NNW,346,3.0,5.0,88,0.00,,---,0.04,VWS V13.01,2013-04-07 14:40:00,
2013-04-07 09:45:00,30.6,27.8,29.85,NNW,346,1.0,5.0,89,0.00,,---,0.04,VWS V13.01,2013-04-07 14:45:00,
2013-04-07 09:50:00,30.8,28.0,29.85,NNW,342,2.0,5.0,89,0.00,,---,0.04,VWS V13.01,2013-04-07 14:50:00,
2013-04-07 09:55:00,30.9,28.0,29.85,NNW,346,2.0,5.0,89,0.00,,---,0.04,VWS V13.01,2013-04-07 14:55:00,
2013-04-07 10:00:00,30.9,28.0,29.86,NNW,346,1.0,5.0,89,0.00,,---,0.04,VWS V13.01,2013-04-07 15:00:00,
2013-04-07 10:05:00,30.9,28.0,29.86,NNW,346,2.0,2.0,89,0.00,,---,0.04,VWS V13.01,2013-04-07 15:05:00,
2013-04-07 10:10:00,31.0,28.1,29.87,NNW,345,2.0,3.0,89,0.00,,---,0.04,VWS V13.01,2013-04-07 15:10:00,
2013-04-07 10:15:00,31.0,27.9,29.87,NNW,345,1.0,3.0,88,0.00,,---,0.04,VWS V13.01,2013-04-07 15:15:00,
2013-04-07 10:20:00,31.1,28.0,29.88,NW,321,3.0,3.0,88,0.00,,---,0.04,VWS V13.01,2013-04-07 15:20:00,
2013-04-07 10:26:00,31.1,28.0,29.89,NW,321,2.0,3.0,88,0.00,,---,0.04,VWS V13.01,2013-04-07 15:26:00,
2013-04-07 10:31:00,31.0,27.9,29.89,NW,321,2.0,3.0,88,0.00,,---,0.04,VWS V13.01,2013-04-07 15:31:00,
2013-04-07 10:36:00,31.3,28.2,29.89,NW,321,2.0,3.0,88,0.00,,---,0.04,VWS V13.01,2013-04-07 15:36:00,
2013-04-07 10:41:00,31.4,28.0,29.90,NNW,342,1.0,3.0,87,0.00,,---,0.04,VWS V13.01,2013-04-07 15:41:00,
2013-04-07 10:46:00,31.7,28.3,29.90,NW,312,1.0,3.0,87,0.01,,---,0.05,VWS V13.01,2013-04-07 15:46:00,
2013-04-07 10:51:00,31.6,27.9,29.90,NW,326,3.0,4.0,86,0.01,,---,0.05,VWS V13.01,2013-04-07 15:51:00,
2013-04-07 10:56:00,31.5,28.4,29.90,North,355,2.0,4.0,88,0.01,,---,0.05,VWS V13.01,2013-04-07 15:56:00,
2013-04-07 11:01:00,31.6,28.5,29.91,NNW,329,2.0,4.0,88,0.01,,---,0.05,VWS V13.01,2013-04-07 16:01:00,
2013-04-07 11:06:00,31.6,28.2,29.91,NNW,336,3.0,6.0,87,0.02,,---,0.06,VWS V13.01,2013-04-07 16:06:00,
2013-04-07 11:11:00,31.7,28.3,29.92,NNW,336,2.0,6.0,87,0.02,,---,0.06,VWS V13.01,2013-04-07 16:11:00,
2013-04-07 11:16:00,31.9,28.2,29.92,NW,323,2.0,6.0,86,0.03,,---,0.07,VWS V13.01,2013-04-07 16:16:00,
2013-04-07 11:22:00,32.2,28.5,29.92,NW,323,3.0,6.0,86,0.03,,---,0.07,VWS V13.01,2013-04-07 16:22:00,
2013-04-07 11:27:00,32.0,28.6,29.92,NW,323,3.0,6.0,87,0.04,,---,0.08,VWS V13.01,2013-04-07 16:27:00,
2013-04-07 11:32:00,32.0,28.9,29.93,NW,322,3.0,6.0,88,0.04,,---,0.08,VWS V13.01,2013-04-07 16:32:00,
2013-04-07 11:37:00,32.0,28.0,29.92,NW,322,3.0,4.0,85,0.04,,---,0.08,VWS V13.01,2013-04-07 16:37:00,
2013-04-07 11:42:00,31.9,28.2,29.93,NW,322,2.0,4.0,86,0.05,,---,0.09,VWS V13.01,2013-04-07 16:42:00,
2013-04-07 11:47:00,32.0,28.6,29.93,NW,322,3.0,4.0,87,0.05,,---,0.09,VWS V13.01,2013-04-07 16:47:00,
2013-04-07 11:52:00,31.9,28.5,29.93,NW,321,3.0,4.0,87,0.05,,---,0.10,VWS V13.01,2013-04-07 16:52:00,
2013-04-07 11:57:00,32.2,29.0,29.93,NW,321,0.0,4.0,88,0.06,,---,0.10,VWS V13.01,2013-04-07 16:57:00,
2013-04-07 12:02:00,32.4,28.7,29.93,NNW,332,0.0,4.0,86,0.06,,---,0.10,VWS V13.01,2013-04-07 17:02:00,
2013-04-07 12:07:00,32.4,28.7,29.93,NNW,338,0.0,0.0,86,0.06,,---,0.11,VWS V13.01,2013-04-07 17:07:00,
2013-04-07 12:12:00,32.3,28.6,29.93,NNW,344,0.0,0.0,86,0.06,,---,0.11,VWS V13.01,2013-04-07 17:12:00,
2013-04-07 12:17:00,32.1,28.7,29.93,NNW,345,0.0,0.0,87,0.06,,---,0.11,VWS V13.01,2013-04-07 17:17:00,
2013-04-07 12:22:00,32.1,28.7,29.93,NNW,345,0.0,0.0,87,0.07,,---,0.12,VWS V13.01,2013-04-07 17:22:00,
2013-04-07 12:27:00,32.6,28.9,29.93,NNW,337,0.0,0.0,86,0.07,,---,0.12,VWS V13.01,2013-04-07 17:27:00,
2013-04-07 12:32:00,33.1,28.8,29.93,NW,325,3.0,3.0,84,0.07,,---,0.12,VWS V13.01,2013-04-07 17:32:00,
2013-04-07 12:37:00,33.1,28.8,29.94,NW,325,2.0,3.0,84,0.04,,---,0.12,VWS V13.01,2013-04-07 17:37:00,
2013-04-07 12:42:00,33.1,28.8,29.94,NW,325,2.0,3.0,84,0.04,,---,0.12,VWS V13.01,2013-04-07 17:42:00,
2013-04-07 12:47:00,32.8,28.8,29.94,NW,325,2.0,3.0,85,0.05,,---,0.13,VWS V13.01,2013-04-07 17:47:00,
2013-04-07 12:52:00,32.8,28.8,29.94,NW,325,2.0,3.0,85,0.05,,---,0.13,VWS V13.01,2013-04-07 17:52:00,
2013-04-07 12:57:00,33.1,29.1,29.94,NW,325,1.0,3.0,85,0.05,,---,0.13,VWS V13.01,2013-04-07 17:57:00,
2013-04-07 13:02:00,33.1,28.5,29.94,NW,325,2.0,3.0,83,0.05,,---,0.13,VWS V13.01,2013-04-07 18:02:00,
2013-04-07 13:07:00,33.5,29.2,29.95,NW,325,3.0,3.0,84,0.03,,---,0.13,VWS V13.01,2013-04-07 18:07:00,
2013-04-07 13:12:00,33.3,29.0,29.95,West,276,2.0,3.0,84,0.03,,---,0.13,VWS V13.01,2013-04-07 18:12:00,
2013-04-07 13:17:00,33.3,28.7,29.95,WNW,301,1.0,3.0,83,0.03,,---,0.13,VWS V13.01,2013-04-07 18:17:00,
2013-04-07 13:22:00,32.9,28.3,29.95,NW,309,2.0,3.0,83,0.03,,---,0.13,VWS V13.01,2013-04-07 18:22:00,
2013-04-07 13:27:00,33.2,28.6,29.95,NW,309,0.0,3.0,83,0.03,,---,0.13,VWS V13.01,2013-04-07 18:27:00,
2013-04-07 13:32:00,34.0,29.7,29.95,SW,229,1.0,2.0,84,0.03,,---,0.13,VWS V13.01,2013-04-07 18:32:00,
2013-04-07 13:37:00,33.9,28.7,29.95,WNW,300,0.0,3.0,81,0.01,,---,0.13,VWS V13.01,2013-04-07 18:37:00,
2013-04-07 13:42:00,33.7,28.8,29.95,WNW,300,2.0,3.0,82,0.01,,---,0.14,VWS V13.01,2013-04-07 18:42:00,
2013-04-07 13:47:00,33.7,29.1,29.96,WNW,299,2.0,3.0,83,0.02,,---,0.14,VWS V13.01,2013-04-07 18:47:00,
2013-04-07 13:52:00,33.8,28.9,29.96,WNW,299,0.0,3.0,82,0.02,,---,0.14,VWS V13.01,2013-04-07 18:52:00,
2013-04-07 13:57:00,34.0,28.8,29.96,WNW,300,2.0,3.0,81,0.02,,---,0.14,VWS V13.01,2013-04-07 18:57:00,
2013-04-07 14:03:00,34.1,28.9,29.96,WNW,299,1.0,1.0,81,0.02,,---,0.14,VWS V13.01,2013-04-07 19:03:00,
2013-04-07 14:08:00,34.4,28.6,29.97,WNW,300,2.0,2.0,79,0.01,,---,0.14,VWS V13.01,2013-04-07 19:08:00,
2013-04-07 14:13:00,34.6,29.1,29.97,WNW,300,0.0,2.0,80,0.01,,---,0.14,VWS V13.01,2013-04-07 19:13:00,
2013-04-07 14:18:00,35.4,30.2,29.97,WSW,238,2.0,4.0,81,0.01,,---,0.14,VWS V13.01,2013-04-07 19:18:00,
2013-04-07 14:23:00,35.0,29.2,29.97,West,265,1.0,4.0,79,0.01,,---,0.14,VWS V13.01,2013-04-07 19:23:00,
2013-04-07 14:28:00,34.8,29.0,29.97,WNW,286,2.0,4.0,79,0.01,,---,0.14,VWS V13.01,2013-04-07 19:28:00,
2013-04-07 14:33:00,34.5,28.7,29.97,WNW,287,0.0,0.0,79,0.01,,---,0.14,VWS V13.01,2013-04-07 19:33:00,
2013-04-07 14:38:00,35.3,29.8,29.97,WNW,287,0.0,2.0,80,0.01,,---,0.14,VWS V13.01,2013-04-07 19:38:00,
2013-04-07 14:43:00,35.4,29.2,29.97,WNW,287,2.0,2.0,78,0.01,,---,0.14,VWS V13.01,2013-04-07 19:43:00,
2013-04-07 14:48:00,35.1,29.3,29.97,WNW,287,1.0,3.0,79,0.01,,---,0.14,VWS V13.01,2013-04-07 19:48:00,
2013-04-07 14:53:00,35.3,30.1,29.97,WNW,287,1.0,3.0,81,0.01,,---,0.14,VWS V13.01,2013-04-07 19:53:00,
2013-04-07 14:59:00,36.0,30.1,29.97,WNW,287,1.0,3.0,79,0.01,,---,0.14,VWS V13.01,2013-04-07 19:59:00,
2013-04-07 15:04:00,35.8,30.5,29.97,WSW,244,4.0,4.0,81,0.00,,---,0.14,VWS V13.01,2013-04-07 20:04:00,
2013-04-07 15:09:00,36.1,30.5,29.97,WSW,256,0.0,4.0,80,0.00,,---,0.14,VWS V13.01,2013-04-07 20:09:00,
2013-04-07 15:14:00,36.1,30.5,29.97,WSW,257,1.0,4.0,80,0.00,,---,0.14,VWS V13.01,2013-04-07 20:14:00,
2013-04-07 15:20:00,36.6,31.3,29.97,WSW,257,0.0,4.0,81,0.00,,---,0.14,VWS V13.01,2013-04-07 20:20:00,
2013-04-07 15:25:00,36.4,30.8,29.97,WSW,252,0.0,4.0,80,0.00,,---,0.14,VWS V13.01,2013-04-07 20:25:00,
2013-04-07 15:30:00,36.2,30.9,29.97,NW,306,0.0,4.0,81,0.00,,---,0.14,VWS V13.01,2013-04-07 20:30:00,
2013-04-07 15:35:00,36.5,31.5,29.97,WSW,242,0.0,1.0,82,0.00,,---,0.14,VWS V13.01,2013-04-07 20:35:00,
2013-04-07 15:40:00,36.8,31.2,29.97,NNW,329,0.0,2.0,80,0.00,,---,0.14,VWS V13.01,2013-04-07 20:40:00,
2013-04-07 15:45:00,37.1,31.2,29.96,NW,323,0.0,2.0,79,0.00,,---,0.14,VWS V13.01,2013-04-07 20:45:00,
2013-04-07 15:50:00,37.0,31.1,29.96,NW,323,0.0,2.0,79,0.00,,---,0.14,VWS V13.01,2013-04-07 20:50:00,
2013-04-07 15:55:00,36.7,30.8,29.97,WSW,250,1.0,3.0,79,0.00,,---,0.14,VWS V13.01,2013-04-07 20:55:00,
2013-04-07 16:00:00,36.7,30.5,29.97,West,259,0.0,4.0,78,0.00,,---,0.14,VWS V13.01,2013-04-07 21:00:00,
2013-04-07 16:05:00,37.0,31.4,29.97,West,259,0.0,1.0,80,0.00,,---,0.14,VWS V13.01,2013-04-07 21:05:00,
2013-04-07 16:10:00,37.1,30.9,29.97,West,259,1.0,1.0,78,0.00,,---,0.14,VWS V13.01,2013-04-07 21:10:00,
2013-04-07 16:15:00,37.0,30.1,29.97,West,259,0.0,1.0,76,0.00,,---,0.14,VWS V13.01,2013-04-07 21:15:00,
2013-04-07 16:20:00,36.5,29.3,29.97,West,259,0.0,1.0,75,0.00,,---,0.14,VWS V13.01,2013-04-07 21:20:00,
2013-04-07 16:25:00,36.4,29.9,29.97,West,259,0.0,1.0,77,0.00,,---,0.14,VWS V13.01,2013-04-07 21:25:00,
2013-04-07 16:30:00,36.8,30.9,29.97,West,259,0.0,1.0,79,0.00,,---,0.14,VWS V13.01,2013-04-07 21:30:00,
2013-04-07 16:35:00,37.2,31.0,29.97,WSW,249,1.0,4.0,78,0.00,,---,0.14,VWS V13.01,2013-04-07 21:35:00,
2013-04-07 16:40:00,37.2,31.0,29.97,WSW,249,0.0,4.0,78,0.00,,---,0.14,VWS V13.01,2013-04-07 21:40:00,
2013-04-07 16:45:00,37.0,30.1,29.97,WSW,249,0.0,4.0,76,0.00,,---,0.14,VWS V13.01,2013-04-07 21:45:00,
2013-04-07 16:50:00,36.9,30.4,29.97,WSW,249,0.0,4.0,77,0.00,,---,0.14,VWS V13.01,2013-04-07 21:50:00,
2013-04-07 16:55:00,36.4,29.9,29.97,WSW,249,0.0,4.0,77,0.00,,---,0.14,VWS V13.01,2013-04-07 21:55:00,
2013-04-07 17:00:00,36.1,30.2,29.97,WSW,249,2.0,4.0,79,0.00,,---,0.14,VWS V13.01,2013-04-07 22:00:00,
2013-04-07 17:06:00,36.3,29.8,29.97,WSW,249,1.0,1.0,77,0.00,,---,0.14,VWS V13.01,2013-04-07 22:06:00,
2013-04-07 17:11:00,36.4,29.9,29.97,WSW,249,2.0,2.0,77,0.00,,---,0.14,VWS V13.01,2013-04-07 22:11:00,
2013-04-07 17:17:00,36.3,29.8,29.97,South,187,0.0,2.0,77,0.00,,---,0.14,VWS V13.01,2013-04-07 22:17:00,
2013-04-07 17:22:00,36.4,29.9,29.97,South,187,0.0,2.0,77,0.00,,---,0.14,VWS V13.01,2013-04-07 22:22:00,
2013-04-07 17:27:00,36.5,29.7,29.97,South,187,0.0,2.0,76,0.00,,---,0.14,VWS V13.01,2013-04-07 22:27:00,
2013-04-07 17:32:00,36.4,29.9,29.97,South,191,1.0,3.0,77,0.00,,---,0.14,VWS V13.01,2013-04-07 22:32:00,
2013-04-07 17:37:00,36.4,29.9,29.97,South,191,0.0,0.0,77,0.00,,---,0.14,VWS V13.01,2013-04-07 22:37:00,
2013-04-07 17:42:00,36.4,30.2,29.97,South,191,0.0,0.0,78,0.00,,---,0.14,VWS V13.01,2013-04-07 22:42:00,
2013-04-07 17:47:00,36.4,29.9,29.97,South,191,0.0,0.0,77,0.00,,---,0.14,VWS V13.01,2013-04-07 22:47:00,
2013-04-07 17:52:00,36.5,30.3,29.97,South,191,0.0,0.0,78,0.00,,---,0.14,VWS V13.01,2013-04-07 22:52:00,
2013-04-07 17:57:00,36.6,30.7,29.98,South,191,0.0,0.0,79,0.00,,---,0.14,VWS V13.01,2013-04-07 22:57:00,
2013-04-07 18:02:00,36.7,30.8,29.97,South,191,0.0,0.0,79,0.00,,---,0.14,VWS V13.01,2013-04-07 23:02:00,
2013-04-07 18:07:00,36.9,30.7,29.97,South,191,0.0,0.0,78,0.00,,---,0.14,VWS V13.01,2013-04-07 23:07:00,
2013-04-07 18:12:00,37.0,30.8,29.97,South,191,0.0,0.0,78,0.00,,---,0.14,VWS V13.01,2013-04-07 23:12:00,
2013-04-07 18:17:00,37.0,30.5,29.97,South,191,0.0,0.0,77,0.00,,---,0.14,VWS V13.01,2013-04-07 23:17:00,
2013-04-07 18:22:00,37.1,30.6,29.97,South,191,0.0,0.0,77,0.00,,---,0.14,VWS V13.01,2013-04-07 23:22:00,
2013-04-07 18:27:00,37.0,30.1,29.97,South,191,0.0,0.0,76,0.00,,---,0.14,VWS V13.01,2013-04-07 23:27:00,
2013-04-07 18:32:00,37.0,30.5,29.97,South,191,0.0,0.0,77,0.00,,---,0.14,VWS V13.01,2013-04-07 23:32:00,
2013-04-07 18:38:00,36.9,30.4,29.97,South,191,0.0,0.0,77,0.00,,---,0.14,VWS V13.01,2013-04-07 23:38:00,
2013-04-07 18:43:00,36.8,30.0,29.97,East,99,0.0,1.0,76,0.00,,---,0.14,VWS V13.01,2013-04-07 23:43:00,
2013-04-07 18:48:00,36.6,30.1,29.97,ENE,72,0.0,2.0,77,0.00,,---,0.14,VWS V13.01,2013-04-07 23:48:00,
2013-04-07 18:53:00,36.6,30.1,29.97,ENE,73,0.0,2.0,77,0.00,,---,0.14,VWS V13.01,2013-04-07 23:53:00,
2013-04-07 18:58:00,36.5,30.0,29.97,ENE,73,0.0,2.0,77,0.00,,---,0.14,VWS V13.01,2013-04-07 23:58:00,
2013-04-07 19:03:00,36.4,29.9,29.97,ENE,73,0.0,0.0,77,0.00,,---,0.14,VWS V13.01,2013-04-08 00:03:00,
2013-04-07 19:08:00,36.4,29.9,29.97,ENE,72,2.0,2.0,77,0.00,,---,0.14,VWS V13.01,2013-04-08 00:08:00,
2013-04-07 19:13:00,36.2,29.7,29.97,ENE,73,0.0,2.0,77,0.00,,---,0.14,VWS V13.01,2013-04-08 00:13:00,
2013-04-07 19:18:00,36.1,29.9,29.97,ENE,73,0.0,2.0,78,0.00,,---,0.14,VWS V13.01,2013-04-08 00:18:00,
2013-04-07 19:23:00,36.0,29.8,29.97,ENE,72,0.0,2.0,78,0.00,,---,0.14,VWS V13.01,2013-04-08 00:23:00,
2013-04-07 19:28:00,35.9,29.7,29.97,ENE,72,0.0,2.0,78,0.00,,---,0.14,VWS V13.01,2013-04-08 00:28:00,
2013-04-07 19:33:00,35.7,29.8,29.97,ENE,73,0.0,0.0,79,0.00,,---,0.14,VWS V13.01,2013-04-08 00:33:00,
2013-04-07 19:38:00,35.5,29.6,29.97,ENE,73,0.0,0.0,79,0.00,,---,0.14,VWS V13.01,2013-04-08 00:38:00,
2013-04-07 19:43:00,35.2,29.4,29.98,ENE,73,0.0,0.0,79,0.00,,---,0.14,VWS V13.01,2013-04-08 00:43:00,
2013-04-07 19:48:00,35.0,29.5,29.98,ENE,72,0.0,0.0,80,0.00,,---,0.14,VWS V13.01,2013-04-08 00:48:00,
2013-04-07 19:53:00,34.8,29.3,29.97,ENE,73,0.0,0.0,80,0.00,,---,0.14,VWS V13.01,2013-04-08 00:53:00,
2013-04-07 19:58:00,34.5,29.0,29.98,ENE,73,0.0,0.0,80,0.00,,---,0.14,VWS V13.01,2013-04-08 00:58:00,
2013-04-07 20:04:00,34.4,28.9,29.98,ENE,73,0.0,0.0,80,0.00,,---,0.14,VWS V13.01,2013-04-08 01:04:00,
2013-04-07 20:09:00,34.3,28.8,29.99,ENE,72,0.0,0.0,80,0.00,,---,0.14,VWS V13.01,2013-04-08 01:09:00,
2013-04-07 20:14:00,34.1,28.6,29.99,ENE,73,0.0,0.0,80,0.00,,---,0.14,VWS V13.01,2013-04-08 01:14:00,
2013-04-07 20:19:00,33.8,28.6,29.99,ENE,73,0.0,0.0,81,0.00,,---,0.14,VWS V13.01,2013-04-08 01:19:00,
2013-04-07 20:25:00,33.6,28.4,29.99,ENE,72,0.0,0.0,81,0.00,,---,0.14,VWS V13.01,2013-04-08 01:25:00,
2013-04-07 20:30:00,33.5,28.3,29.99,ENE,72,0.0,0.0,81,0.00,,---,0.14,VWS V13.01,2013-04-08 01:30:00,
2013-04-07 20:35:00,33.2,28.3,30.00,ENE,73,0.0,0.0,82,0.00,,---,0.14,VWS V13.01,2013-04-08 01:35:00,
2013-04-07 20:40:00,32.9,28.0,30.00,ENE,73,0.0,1.0,82,0.00,,---,0.14,VWS V13.01,2013-04-08 01:40:00,
2013-04-07 20:45:00,32.6,27.7,29.99,ENE,72,0.0,1.0,82,0.00,,---,0.14,VWS V13.01,2013-04-08 01:45:00,
2013-04-07 20:50:00,32.4,27.8,30.00,ENE,72,0.0,1.0,83,0.00,,---,0.14,VWS V13.01,2013-04-08 01:50:00,
2013-04-07 20:55:00,32.3,27.7,29.99,ENE,73,0.0,1.0,83,0.00,,---,0.14,VWS V13.01,2013-04-08 01:55:00,
2013-04-07 21:00:00,32.1,27.5,29.99,ENE,73,0.0,1.0,83,0.00,,---,0.14,VWS V13.01,2013-04-08 02:00:00,
2013-04-07 21:05:00,31.9,27.3,29.99,ENE,78,1.0,1.0,83,0.00,,---,0.14,VWS V13.01,2013-04-08 02:05:00,
2013-04-07 21:10:00,31.7,27.4,29.99,East,79,0.0,2.0,84,0.00,,---,0.14,VWS V13.01,2013-04-08 02:10:00,
2013-04-07 21:16:00,31.6,27.6,30.00,East,79,0.0,2.0,85,0.00,,---,0.14,VWS V13.01,2013-04-08 02:16:00,
2013-04-07 21:21:00,31.6,27.6,29.99,East,79,0.0,2.0,85,0.00,,---,0.14,VWS V13.01,2013-04-08 02:21:00,
2013-04-07 21:26:00,31.5,27.5,29.98,ESE,113,0.0,3.0,85,0.00,,---,0.14,VWS V13.01,2013-04-08 02:26:00,
2013-04-07 21:31:00,31.5,27.8,29.98,ESE,113,1.0,3.0,86,0.00,,---,0.14,VWS V13.01,2013-04-08 02:31:00,
2013-04-07 21:36:00,31.5,27.8,29.98,ESE,113,0.0,2.0,86,0.00,,---,0.14,VWS V13.01,2013-04-08 02:36:00,
2013-04-07 21:41:00,31.5,27.8,29.98,ESE,113,0.0,2.0,86,0.00,,---,0.14,VWS V13.01,2013-04-08 02:41:00,
2013-04-07 21:46:00,31.4,27.7,29.98,ESE,113,0.0,2.0,86,0.00,,---,0.14,VWS V13.01,2013-04-08 02:46:00,
2013-04-07 21:51:00,31.4,27.7,29.99,ESE,113,0.0,2.0,86,0.00,,---,0.14,VWS V13.01,2013-04-08 02:51:00,
2013-04-07 21:56:00,31.4,27.4,29.99,ESE,113,0.0,2.0,85,0.00,,---,0.14,VWS V13.01,2013-04-08 02:56:00,
2013-04-07 22:01:00,31.4,27.4,29.98,ESE,118,0.0,2.0,85,0.00,,---,0.14,VWS V13.01,2013-04-08 03:01:00,
2013-04-07 22:07:00,31.4,27.4,29.98,ESE,118,0.0,1.0,85,0.00,,---,0.14,VWS V13.01,2013-04-08 03:07:00,
2013-04-07 22:12:00,31.4,27.4,29.98,ESE,118,0.0,1.0,85,0.00,,---,0.14,VWS V13.01,2013-04-08 03:12:00,
2013-04-07 22:17:00,31.4,27.4,29.98,SE,126,0.0,2.0,85,0.00,,---,0.14,VWS V13.01,2013-04-08 03:17:00,
2013-04-07 22:22:00,31.4,27.4,29.98,SE,126,0.0,2.0,85,0.00,,---,0.14,VWS V13.01,2013-04-08 03:22:00,
2013-04-07 22:27:00,31.5,27.5,29.97,SSE,157,0.0,2.0,85,0.00,,---,0.14,VWS V13.01,2013-04-08 03:27:00,
2013-04-07 22:32:00,31.5,27.5,29.97,East,90,0.0,4.0,85,0.00,,---,0.14,VWS V13.01,2013-04-08 03:32:00,
2013-04-07 22:37:00,31.5,27.5,29.97,East,90,0.0,0.0,85,0.00,,---,0.14,VWS V13.01,2013-04-08 03:37:00,
2013-04-07 22:42:00,31.5,27.5,29.96,East,90,0.0,0.0,85,0.00,,---,0.14,VWS V13.01,2013-04-08 03:42:00,
2013-04-07 22:47:00,31.5,27.5,29.96,East,90,0.0,0.0,85,0.00,,---,0.14,VWS V13.01,2013-04-08 03:47:00,
2013-04-07 22:52:00,31.5,27.5,29.96,East,90,0.0,0.0,85,0.00,,---,0.14,VWS V13.01,2013-04-08 03:52:00,
2013-04-07 22:58:00,31.5,27.5,29.96,East,90,0.0,0.0,85,0.00,,---,0.14,VWS V13.01,2013-04-08 03:58:00,
2013-04-07 23:00:00,31.5,27.5,29.96,East,90,0.0,0.0,85,0.00,,---,0.14,VWS V13.01,2013-04-08 04:00:00,
2013-04-07 23:05:00,31.5,27.5,29.95,East,90,0.0,0.0,85,0.00,,---,0.14,VWS V13.01,2013-04-08 04:05:00,
2013-04-07 23:10:00,31.5,27.5,29.95,East,90,0.0,0.0,85,0.00,,---,0.14,VWS V13.01,2013-04-08 04:10:00,
2013-04-07 23:15:00,31.5,27.5,29.95,East,90,0.0,0.0,85,0.00,,---,0.14,VWS V13.01,2013-04-08 04:15:00,
2013-04-07 23:20:00,31.5,27.5,29.95,East,90,0.0,0.0,85,0.00,,---,0.14,VWS V13.01,2013-04-08 04:20:00,
2013-04-07 23:25:00,31.5,27.5,29.95,East,90,0.0,0.0,85,0.00,,---,0.14,VWS V13.01,2013-04-08 04:25:00,
2013-04-07 23:31:00,31.5,27.5,29.95,East,90,0.0,0.0,85,0.00,,---,0.14,VWS V13.01,2013-04-08 04:31:00,
2013-04-07 23:36:00,31.5,27.5,29.95,East,90,0.0,0.0,85,0.00,,---,0.14,VWS V13.01,2013-04-08 04:36:00,
2013-04-07 23:41:00,31.5,27.5,29.95,East,90,0.0,0.0,85,0.00,,---,0.14,VWS V13.01,2013-04-08 04:41:00,
2013-04-07 23:46:00,31.5,27.5,29.95,East,90,0.0,0.0,85,0.00,,---,0.14,VWS V13.01,2013-04-08 04:46:00,
2013-04-07 23:51:00,31.5,27.5,29.95,East,90,0.0,0.0,85,0.00,,---,0.14,VWS V13.01,2013-04-08 04:51:00,
2013-04-07 23:56:00,31.5,27.5,29.95,East,90,0.0,0.0,85,0.00,,---,0.14,VWS V13.01,2013-04-08 04:56:00,